Other Public Products
Issued by NWS Grand Forks, ND

Home | Current Version | Previous Version | Text Only | Print | Product List | Glossary Off
Versions: 1 2 3 4 5 6 7 8 9 10 11 12 13 14 15 16 17 18 19 20 21 22 23 24 25 26 27 28 29 30 31 32 33 34 35 36 37 38 39 40 41 42 43 44 45 46 47 48 49 50

000
FPUS83 KFGF 222231
OPUFGF
PRAIRIE TO PINES WEATHER ROUNDUP
NATIONAL WEATHER SERVICE EASTERN NORTH DAKOTA/GRAND FORKS ND
500 PM CDT THU JUN 22 2017

 **SATELLITE DATA USED TO AUGMENT SKY COVER AT AUTOMATED STATIONS**
 *****  WEATHER ACROSS EASTERN NORTH DAKOTA  *****

CITY           SKY/WX    TMP DP  RH WIND       PRES   REMARKS
GRAND FORKS    PTSUNNY   74  39  28 W17G29    29.68S
GRAND FORKS AF FAIR      72  37  27 NW17G26   29.69S
GRAND CITY NWS NOT AVBL
BUXTON           N/A     76  42  28 W18G30      N/A
DEVILS LAKE    PTSUNNY   71  37  28 W32G40    29.70S
FARGO          FAIR      78  40  25 W23G29    29.71S
WAHPETON ARPT  FAIR      77  41  27 W18G24    29.73F
$$

 *****  WEATHER ACROSS CENTRAL AND WESTERN NORTH DAKOTA  *****

CITY           SKY/WX    TMP DP  RH WIND       PRES   REMARKS
JAMESTOWN      PTSUNNY   75  36  24 W24G30    29.77R
BISMARCK       FAIR      77  33  20 W21G35    29.80F
MINOT          FAIR      70  35  27 W25G45    29.75S
MINOT AFB      FAIR      65  42  42 NW24G32   29.73R
GARRISON         N/A     71  33  24 NW25G44   29.78F
WILLISTON      FAIR      70  36  28 NW35G46   29.85R
DICKINSON      FAIR      69  26  20 W25G38    29.86F
HETTINGER      FAIR      74  28  18 W24G33    29.90S
$$

 *****  OTHER OBSERVATIONS NORTHEAST NORTH DAKOTA  *****

CITY           SKY/WX    TMP DP  RH WIND       PRES   REMARKS
WALHALLA       NOT AVBL
LANGDON        MOCLDY    68  46  45 NW31G40   29.66S
CAVALIER       FAIR      72  41  33 W22G31    29.62F
GRAFTON        FAIR      72  39  30 W32G38    29.66F
CANDO          NOT AVBL
FORT TOTTEN      N/A     71  40  32 NW12      29.95S
ROLLA            N/A     63  41  45 W35G47    29.69R
RUGBY          NOT AVBL
 ***** THE ABOVE OBSERVATIONS ARE NON NWS ARE NOT QUALITY
        CONTROLLED AND MAY MIS-REPORT RAIN FOR SNOW...
$$

 *****  OTHER OBSERVATIONS SOUTHEAST NORTH DAKOTA *****

CITY           SKY/WX    TMP DP  RH WIND       PRES   REMARKS
COOPERSTOWN    FAIR      72  36  26 W23G35    29.74S
VALLEY CITY    FAIR      70  37  30 W17       29.77S
OAKES          NOT AVBL
GWINNER        CLEAR     77  41  27 NW20G29   29.76S
SHEYENNE NWR     N/A     79  43  28 NW14      29.95S
BUFFALO          N/A     76  36  23 NW14G30     N/A
WYNDMERE       NOT AVBL
 ***** THE ABOVE OBSERVATIONS ARE NON NWS ARE NOT QUALITY
       CONTROLLED AND MAY MIS-REPORT RAIN FOR SNOW...
$$

  *****  WEATHER ACROSS NORTHERN MINNESOTA  *****

CITY           SKY/WX    TMP DP  RH WIND       PRES   REMARKS
FLAG ISLAND    FAIR      72  37  28 W21G38    29.55F HAZE
WARROAD        FAIR      72  45  37 W17G31    29.60S
ROSEAU           N/A     72  39  30 W15G29    29.61S
HALLOCK        FAIR      72  37  28 W23G35    29.62S
THF RVR FALLS  FAIR      73  37  27 W20G33    29.68R
HALSTAD          N/A     77  39  26 W22         N/A
FOSSTON        FAIR      72  37  28 W16G28    29.70S
BAUDETTE       LGT RAIN  68  50  52 W12       29.60S
WASKISH        FAIR      73  55  53 W14G20    29.65S
CROOKSTON      FAIR      72  37  28 W24G35    29.69S
$$
  *****  WEATHER ACROSS CENTRAL AND WEST MINNESOTA  *****

CITY           SKY/WX    TMP DP  RH WIND       PRES   REMARKS
BEMIDJI        FAIR      75  42  31 W15       29.68S
PARK RAPIDS    FAIR      77  45  32 W16       29.71S
WADENA         FAIR      72  48  43 W10       29.73S
DETROIT LAKES  FAIR      73  37  27 NW18G26   29.74R
MOORHEAD       FAIR      77  39  25 W21G28    29.72S
FERGUS FALLS   FAIR      77  48  36 W16       29.70F
ELBOW LAKE     MOCLDY    76  52  43 NW14G20   29.75F
MORRIS MN      FAIR      75  57  53 SW14      29.76F
STAPLES        FAIR      77  46  33 SW13      29.73S
WHEATON        FAIR      75  48  38 SW6       29.76F
$$
  *****  WEATHER ELSEWHERE ACROSS MINNESOTA  *****

CITY           SKY/WX    TMP DP  RH WIND       PRES   REMARKS
DULUTH         FAIR      75  47  36 W15       29.68S
INTRNTL FALLS  FAIR      73  45  36 W8        29.61R
ELY            FAIR      72  39  30 W17G23    29.64F
CLOQUET        FAIR      75  46  35 W10G16    29.70R
BRAINERD       FAIR      76  46  34 SW13      29.72F
HIBBING        FAIR      73  45  36 VRB7G17   29.67F
ALEXANDRIA     FAIR      75  49  39 SW10      29.77S
SAINT CLOUD    FAIR      72  53  51 VRB6      29.76F
MINNEAPOLIS    LGT RAIN  66  62  87 NW8       29.75F
$$

  *****  WEATHER ACROSS SOUTH DAKOTA  *****

CITY           SKY/WX    TMP DP  RH WIND       PRES   REMARKS
SIOUX FALLS    CLOUDY    72  64  76 N13       29.77S
BROOKINGS      FAIR      71  47  42 N10       29.81S
WATERTOWN      FAIR      72  55  55 S7        29.81S
HURON          FAIR      76  54  46 N7        29.81F
SISSETON         N/A     78  46  32 W13       29.75F
ABERDEEN       FAIR      79  47  32 NW17G23   29.78S
MITCHELL       CLOUDY    74  52  46 N14       29.81R
PIERRE         FAIR      77  45  32 W7        29.83S
MOBRIDGE       FAIR      82  34  17 NW18G31   29.80S
RAPID CITY     FAIR      78  40  25 N17G29    29.92F
$$

  *****  SOME WEATHER IN NEARBY STATES *****

CITY           SKY/WX    TMP DP  RH WIND       PRES   REMARKS
GLASGOW MT     LGT RAIN  54  46  74 NW30G45   30.00R
GREAT FALLS MT FAIR      66  31  27 N14G26    30.16R
CHEYENNE WY    FAIR      76  39  26 NE15G22   30.01S
SCOTTSBLUFF NE FAIR      81  53  37 N20G30    29.89F
OMAHA NE       PTSUNNY   92  69  47 SW6       29.62S HX  97
DES MOINES IA  PTSUNNY   86  67  52 SW16      29.65S
DAVENPORT IA   FAIR      84  70  62 S18G25    29.68F
CHICAGO IL     PTSUNNY   86  69  56 S17G29    29.73F HX  90
EAU CLAIRE WI  PTSUNNY   70  66  87 CALM      29.71F
LA CROSSE WI   RAIN      70  69  97 S13       29.72F FOG
$$

  *****  SOME NATIONAL WEATHER *****

CITY           SKY/WX    TMP DP  RH WIND       PRES   REMARKS
LA GUARDIA NY  PTSUNNY   81  55  40 S17G25    29.89F
RALEIGH NC     CLOUDY    78  71  79 SW8       30.06F
ATLANTA GA     LGT RAIN  79  75  87 S7        30.03R
NEW ORLEANS LA PTSUNNY   85  77  77 S21G28    29.81R HX  95
OKLAHOMA CITY  FAIR      91  66  43 S8        29.66F HX  93
ALBUQUERQUE NM FAIR     100  26   7 N20G25    29.90F HX  93
SALT LAKE CITY FAIR      85  33  15 NW12      30.01F
LOS ANGELES CA FAIR      71  61  70 W13       29.83S
BOISE ID       FAIR      80  29  15 W21G30    30.09F
SEATTLE WA     FAIR      73  47  39 N10       30.27S
$$

*** WEATHER ACROSS MANITOBA...SASKATCHEWAN AND ONTARIO ***
                ***ONTARIO***

CITY           SKY/WX    TMP DP  RH WIND       PRES   REMARKS
GERALDTON      MOSUNNY   68  52  56 W8        29.56F
THUNDER BAY    PTSUNNY   79  45  29 W14G21    29.56F
SIOUX LOOKOUT  MOSUNNY   70  41  35 W14G21    29.55S
TORONTO        PTSUNNY   72  61  68 SE8       29.82F
BIG TROUT LK   MOSUNNY   59  54  82 SE8       29.51F
PICKLE LAKE    PTSUNNY   66  41  39 W16       29.52R
DRYDEN         CLOUDY    68  41  37 SW18G29   29.56R
KENORA         PTSUNNY   70  41  35 SW18G28   29.55F
$$
                *** MANITOBA***

CITY           SKY/WX    TMP DP  RH WIND       PRES   REMARKS
BRANDON        PTSUNNY   57  46  67 W20G31    29.63S
DAUPHIN        PTSUNNY   63  52  67 W23G30    29.52S
ISLAND LAKE    MOSUNNY   63  52  67 SE8       29.47R
PILOT MOUND      N/A     63  43  48 W17G30      N/A
THE PAS        MOSUNNY   61  55  82 N16G23    29.54R
THOMPSON       PTSUNNY   64  55  72 NE3       29.50S
WINNIPEG       CLOUDY    61  48  63 W18G28    29.58R
LYNN LAKE      CLOUDY    64  48  55 N12G23    29.64R
CHURCHILL      PTSUNNY   41  36  81 NE26G32   29.67R
GILLAM         PTSUNNY   70  50  49 SE6G20    29.50R
$$
                ***SASKATCHEWAN***

CITY           SKY/WX    TMP DP  RH WIND       PRES   REMARKS
ESTEVAN        CLOUDY    55  46  71 W28G35    29.79S
KINDERSLEY     PTSUNNY   55  41  58 NW24G32   30.02R
LLOYDMINSTER   PTSUNNY   54  41  62 NW18G32   30.05R
PRINCE ALBERT  CLOUDY    54  46  76 N25G33    29.85R
REGINA         LGT RAIN  59  52  77 NW30G43   29.78R
YORKTON        LGT RAIN  59  57  94 W13G18    29.62S



USA.gov is the U.S. government's official web portal to all federal, state and local government web resources and services.